User: anonymous   Login
Location: Unspecified
(0.0000°N, 0.0000°E)
Time: 07:46:34
(UTC+00:00)
Language:

STARLINK-6264 - Orbit

View from above orbital plane
View from above orbital plane
View from above satellite
View from above satellite

Ground track
Ground track

The orbit is defined by the following mean orbital elements,

1 56429U          26145.37009818 +.00000000 +00000-0 +24799-4 0 00008
2 56429  43.0036 106.7781 0001449 264.3713  95.6974 15.27574799    04
Epoch (UTC): 25 May 2026 08:52:56
Eccentricity: 0.0001449
inclination: 43.0036°
perigee height: 482 km
apogee height: 484 km
right ascension of ascending node: 106.7781°
argument of perigee: 264.3713°
revolutions per day: 15.27574799
mean anomaly at epoch: 95.6974°

The dashed part of the orbit path shows where the satellite is in the earth's shadow,  

DLR